Regional Weather Roundup
Issued by NWS

Home | Current Version | Previous Version | Text Only | Print | Product List | Glossary Off
Versions: 1 2 3 4 5 6 7 8 9 10 11 12 13 14 15 16 17 18 19 20 21 22 23 24 25 26 27 28 29 30 31 32 33 34 35 36 37 38 39 40 41 42 43 44 45 46 47 48 49 50

000
ASUS45 KPSR 290110
RWRAZ

ARIZONA REGIONAL HOURLY WEATHER ROUNDUP
NATIONAL WEATHER SERVICE PHOENIX AZ
600 PM MST MON JUL 28 2014

NOTE: FAIR INDICATES FEW OR NO CLOUDS BELOW 12,000 FEET WITH NO
SIGNIFICANT WEATHER AND/OR OBSTRUCTIONS TO VISIBILITY.

AZZ001>003-036-290200-
NORTHWEST ARIZONA

CITY           SKY/WX    TMP DP  RH WIND       PRES   REMARKS
BULLHEAD CITY  MOSUNNY   99  63  30 N33G44    29.87F HX 100
KINGMAN        PTSUNNY   88  58  36 NE6       30.13R
$$

AZZ004>008-015-016-018-290200-
NORTH CENTRAL ARIZONA

CITY           SKY/WX    TMP DP  RH WIND       PRES   REMARKS
GRAND CANYON   PTSUNNY   73  49  42 NW6       30.37F
WILLIAMS       CLOUDY    68  55  64 CALM      30.43F
PRESCOTT       PTSUNNY   76  56  49 SE7       30.23F
FLAGSTAFF      CLOUDY    68  51  54 SW3       30.39F
PAYSON         PTSUNNY   84  52  32 S7        30.24F
PAGE           CLOUDY    87  50  27 VRB3      30.16R
$$

AZZ009>014-017-290200-
NORTHEAST ARIZONA

CITY           SKY/WX    TMP DP  RH WIND       PRES   REMARKS
WINSLOW        PTSUNNY   87  46  24 W5        30.20F
SAINT JOHNS    CLOUDY    71  62  73 E8        30.29F
WINDOW ROCK    PTSUNNY   76  52  43 S6        30.36S
SHOW LOW       CLOUDY    72  52  49 SE12      30.36F
$$

AZZ023-290200-
GREATER PHOENIX AREA

CITY           SKY/WX    TMP DP  RH WIND       PRES   REMARKS
PHOENIX        MOSUNNY  105  55  19 VRB3      29.87F HX 104
BUCKEYE          N/A    102  57  22 SW8       29.89F HX 101
GLENDALE       MOSUNNY  106  57  20 SW7       29.90F HX 105
LUKE AFB       NOT AVBL
DEER VALLEY    SUNNY    102  54  20 NW7       29.91F HX 100
SCOTTSDALE     SUNNY    102  55  20 NW5       29.93F HX 100
MESA-FALCON    MOSUNNY  102  55  21 SW9       29.91  HX 101
MESA-GATEWAY   MOSUNNY  102  57  22 W7        29.93F HX 101
CHANDLER       PTSUNNY  102  59  24 SW7       29.91F HX 102
$$

AZZ027-028-290200-
SOUTHWEST MARICOPA COUNTY AND PINAL COUNTY

CITY           SKY/WX    TMP DP  RH WIND       PRES   REMARKS
CASA GRANDE    MOSUNNY  100  57  23 W8        29.94S
GILA BEND      PTCLDY   106  52  16 W9        29.88F HX 103
$$

AZZ503-504-507>509-290200-
SOUTHEAST ARIZONA

CITY           SKY/WX    TMP DP  RH WIND       PRES   REMARKS
TUCSON         PTSUNNY   92  61  35 S7        30.05F
DAVIS-MONTHAN  SUNNY     92  61  35 VRB2      30.04F
NOGALES        PTSUNNY   85  60  42 CALM      30.14F
SIERRA VISTA   PTSUNNY   82  57  42 VRB7      30.21F
DOUGLAS        PTSUNNY   85  60  42 NW6       30.16F
SAFFORD        MOSUNNY   91  55  29 NW7       30.05F
$$

AZZ020-021-025-026-031-290200-
SOUTHWEST ARIZONA

CITY           SKY/WX    TMP DP  RH WIND       PRES   REMARKS
YUMA           MOSUNNY  107  56  18 S8        29.82F HX 106
$$

CAZ031-033-041-043-047-048-061-290200-
SOUTHERN CALIFORNIA

CITY           SKY/WX    TMP DP  RH WIND       PRES   REMARKS
DOWNTOWN L.A.  SUNNY     83  43  24 VRB6      29.97F
L.A. AIRPORT   MOSUNNY   75  61  61 W14       29.99S
SAN DIEGO      MOSUNNY   80  57  45 NW9       29.98F
BURBANK        MOSUNNY   87  46  24 VRB7      29.98F
ONTARIO        MOSUNNY   91  52  26 W12       29.97F
RIVERSIDE      MOSUNNY   91  54  28 W12       29.97F
PALM SPRINGS   SUNNY    106  46  13 NW10      29.87F HX 102
EL CENTRO NAS  MOSUNNY  106  59  21 SE5       29.80F HX 106
IMPERIAL       MOSUNNY  106  58  20 N7        29.80F HX 106
BLYTHE           N/A    N/A N/A N/A MISG      29.82F
NEEDLES        SUNNY    106  52  16 S6        29.87F HX 103
$$

NVZ020-UTZ003-290200-
SOUTHERN NEVADA-UTAH

CITY           SKY/WX    TMP DP  RH WIND       PRES   REMARKS
LAS VEGAS      LGT RAIN  86  62  44 S12       30.00R
SALT LAKE CITY LGT RAIN  68  64  87 SE12      30.23F
$$

NMZ009-TXZ055-290200-
NEW MEXICO-WEST TEXAS

CITY           SKY/WX    TMP DP  RH WIND       PRES   REMARKS
ALBUQUERQUE    PTSUNNY   82  51  34 S6        30.27S
EL PASO        PTSUNNY   90  53  28 E13       30.11F
$$


........................KEY........................
SKY/WX - SKY CONDITION/WEATHER
TMP    - TEMPERATURE IN FAHRENHEIT
DP     - DEW POINT IN FAHRENHEIT
RH     - RELATIVE HUMIDITY IN PERCENT
WIND   - DIRECTION AND SPEED IN MILES PER HOUR (MPH)
VRB    - VARIABLE WIND DIRECTION
PRES   - MEAN SEA LEVEL PRESSURE IN INCHES OF MERCURY
         F - FALLING PRESSURE   R - RISING PRESSURE
         S - STEADY PRESSURE
VSB    - VISIBILITY IN MILES
HX     - HEAT INDEX IN FAHRENHEIT
WCI    - WIND CHILL INDEX IN FAHRENHEIT
TC     - TEMPERATURE IN CELSIUS WHICH IS ALSO KNOWN AS
         TEMPERATURE IN CENTIGRADE
AFB    - AIR FORCE BASE
         LUKE AFB IS LUKE AIR FORCE BASE
         DAVIS-MONTHAN IS DAVIS-MONTHAN AIR FORCE BASE
NAS    - NAVAL AIR STATION
         EL CENTRO NAS IS EL CENTRO NAVAL AIR STATION
N/A    - NOT AVAILABLE



USA.gov is the U.S. government's official web portal to all federal, state and local government web resources and services.